Weather History for Phillips, WI

Change the Weather History Date:

Monday, October 7, 2013

  Actual Average Record
Temperature  
Mean Temperature 48 °F -  
Max Temperature 59 °F 57 °F 82 °F (2007)
Min Temperature 38 °F 37 °F 24 °F (2001)
Degree Days  
Heating Degree Days 16    
Moisture  
Dew Point 41 °F    
Average Humidity 82    
Maximum Humidity 100    
Minimum Humidity 45    
Precipitation  
Precipitation 0.00 in - - ()
Sea Level Pressure  
Sea Level Pressure 29.87 in    
Wind  
Wind Speed 3 mph (WNW)    
Max Wind Speed 12 mph    
Max Gust Speed 16 mph    
Visibility 9 miles    
Events      
Averages and records for this station are not official NWS values.
T = Trace of Precipitation, MM = Missing Value Source: NWS Daily Summary

Daily Weather History Graph

Daily Weather History Graph

Search for Another Location

Airport:

Trip Planner

Search our weather history database for the weather conditions in past years. The results will help you decide how hot, cold, wet, or windy it might be!

Date:

Astronomy

Oct. 07, 2013 Rise Set
Actual Time 7:07 AM CDT 6:29 PM CDT
Civil Twilight 6:38 AM CDT 6:59 PM CDT
Nautical Twilight 6:03 AM CDT 7:33 PM CDT
Astronomical Twilight 5:29 AM CDT 8:08 PM CDT
Moon 10:07 AM CDT (10/7) 8:04 PM CDT (10/7)
Length of Visible Light 12h 21m
Length of Day
11h 22m
Waxing Crescent, 9% of the Moon is Illuminated
Oct 7
Waxing Crescent
Oct 11
First Quarter
Oct 18
Full
Oct 26
Last Quarter
Nov 3
New

Hourly Weather History & Observations

Time (CDT) Temp. Windchill Dew Point Humidity Pressure Visibility Wind Dir Wind Speed Gust Speed Precip Events Conditions
12:15 AM 44.6 °F 40.7 °F 42.8 °F 93% 29.75 in 10.0 mi NNW 6.9 mph - N/A   Overcast
12:35 AM 44.1 °F 41.5 °F 42.4 °F 94% 29.75 in 10.0 mi NW 4.6 mph - N/A   Overcast
12:55 AM 43.9 °F 41.3 °F 42.6 °F 95% 29.75 in 10.0 mi NW 4.6 mph - N/A   Overcast
1:15 AM 42.8 °F 41.1 °F 41.9 °F 97% 29.75 in 10.0 mi NW 3.5 mph - N/A   Mostly Cloudy
1:35 AM 42.3 °F 40.5 °F 41.0 °F 95% 29.75 in 10.0 mi NW 3.5 mph - N/A   Mostly Cloudy
1:55 AM 41.7 °F 39.8 °F 41.0 °F 97% 29.75 in 10.0 mi WNW 3.5 mph - N/A   Scattered Clouds
2:15 AM 41.5 °F - 41.0 °F 98% 29.75 in 10.0 mi Calm Calm - N/A   Mostly Cloudy
2:35 AM 41.5 °F - 41.0 °F 98% 29.75 in 10.0 mi Calm Calm - N/A   Mostly Cloudy
2:55 AM 41.0 °F 39.0 °F 40.5 °F 98% 29.75 in 10.0 mi WNW 3.5 mph - N/A   Scattered Clouds
3:15 AM 41.0 °F 39.0 °F 40.5 °F 98% 29.75 in 10.0 mi West 3.5 mph - N/A   Clear
3:35 AM 40.6 °F 38.6 °F 40.1 °F 98% 29.75 in 10.0 mi West 3.5 mph - N/A   Clear
3:55 AM 41.0 °F 37.1 °F 41.0 °F 100% 29.75 in 3.0 mi WNW 5.8 mph - N/A   Mostly Cloudy
4:15 AM 41.4 °F 38.4 °F 41.0 °F 99% 29.75 in 10.0 mi WNW 4.6 mph - N/A   Overcast
4:35 AM 41.0 °F - 40.6 °F 99% 29.76 in 10.0 mi Calm Calm - N/A   Overcast
4:55 AM 41.0 °F 39.0 °F 40.6 °F 99% 29.77 in 10.0 mi WNW 3.5 mph - N/A   Overcast
5:15 AM 41.0 °F 39.0 °F 40.5 °F 98% 29.77 in 10.0 mi West 3.5 mph - N/A   Overcast
5:35 AM 40.6 °F - 40.5 °F 99% 29.77 in 4.0 mi Calm Calm - N/A   Overcast
5:55 AM 41.0 °F - 40.6 °F 99% 29.77 in 1.5 mi Calm Calm - N/A   Overcast
6:15 AM 41.0 °F - 41.0 °F 100% 29.78 in 1.5 mi Calm Calm - N/A   Overcast
6:35 AM 41.2 °F - 41.0 °F 99% 29.79 in 4.0 mi Calm Calm - N/A   Overcast
6:55 AM 41.0 °F 38.0 °F 40.6 °F 99% 29.79 in 10.0 mi West 4.6 mph - N/A   Overcast
7:15 AM 41.0 °F 38.0 °F 40.6 °F 99% 29.80 in 7.0 mi West 4.6 mph - N/A   Overcast
7:35 AM 41.2 °F - 41.0 °F 99% 29.80 in 5.0 mi Calm Calm - N/A   Overcast
7:55 AM 41.4 °F - 41.2 °F 99% 29.81 in 5.0 mi Calm Calm - N/A   Overcast
8:15 AM 41.2 °F - 41.0 °F 99% 29.81 in 3.0 mi Calm Calm - N/A   Overcast
8:35 AM 41.9 °F - 41.5 °F 99% 29.82 in 7.0 mi Calm Calm - N/A   Overcast
8:55 AM 42.8 °F 41.1 °F 42.1 °F 97% 29.83 in 10.0 mi West 3.5 mph - N/A   Overcast
9:15 AM 44.6 °F - 42.6 °F 93% 29.83 in 10.0 mi Calm Calm - N/A   Scattered Clouds
9:35 AM 45.5 °F - 43.0 °F 91% 29.85 in 10.0 mi Calm Calm - N/A   Scattered Clouds
9:55 AM 47.5 °F - 44.2 °F 89% 29.86 in 10.0 mi West 4.6 mph - N/A   Mostly Cloudy
10:15 AM 49.1 °F - 43.5 °F 81% 29.86 in 10.0 mi NW 6.9 mph - N/A   Scattered Clouds
10:35 AM 50.0 °F - 44.2 °F 81% 29.87 in 10.0 mi WNW 5.8 mph - N/A   Clear
10:55 AM 50.7 °F - 43.5 °F 76% 29.88 in 10.0 mi WNW 4.6 mph - N/A   Clear
11:15 AM 52.0 °F - 43.7 °F 73% 29.88 in 10.0 mi NW 6.9 mph - N/A   Scattered Clouds
11:35 AM 52.9 °F - 43.2 °F 70% 29.88 in 10.0 mi WNW 5.8 mph - N/A   Scattered Clouds
11:55 AM 53.8 °F - 42.3 °F 65% 29.89 in 10.0 mi NW 8.1 mph - N/A   Scattered Clouds
12:15 PM 54.5 °F - 41.9 °F 62% 29.89 in 10.0 mi WNW 6.9 mph - N/A   Scattered Clouds
12:35 PM 54.9 °F - 41.7 °F 61% 29.89 in 10.0 mi NW 5.8 mph 16.1 mph N/A   Mostly Cloudy
12:55 PM 54.5 °F - 40.6 °F 60% 29.90 in 10.0 mi West 5.8 mph - N/A   Mostly Cloudy
1:15 PM 56.1 °F - 40.6 °F 56% 29.89 in 10.0 mi WNW 8.1 mph - N/A   Mostly Cloudy
1:35 PM 55.2 °F - 38.8 °F 54% 29.90 in 10.0 mi NNW 11.5 mph - N/A   Scattered Clouds
1:55 PM 56.8 °F - 39.4 °F 52% 29.90 in 10.0 mi WNW 6.9 mph - N/A   Mostly Cloudy
2:15 PM 55.6 °F - 39.4 °F 55% 29.90 in 10.0 mi WNW 4.6 mph - N/A   Scattered Clouds
2:35 PM 57.4 °F - 39.6 °F 51% 29.90 in 10.0 mi NW 8.1 mph - N/A   Scattered Clouds
2:55 PM 58.3 °F - 39.2 °F 49% 29.90 in 10.0 mi WNW 4.6 mph - N/A   Mostly Cloudy
3:15 PM 57.9 °F - 38.5 °F 48% 29.91 in 10.0 mi WNW 4.6 mph - N/A   Mostly Cloudy
3:35 PM 58.8 °F - 38.3 °F 47% 29.91 in 10.0 mi West 9.2 mph - N/A   Scattered Clouds
3:55 PM 58.1 °F - 37.8 °F 47% 29.92 in 10.0 mi NW 6.9 mph - N/A   Scattered Clouds
4:15 PM 58.5 °F - 37.4 °F 45% 29.92 in 10.0 mi West 6.9 mph - N/A   Mostly Cloudy
4:35 PM 58.3 °F - 37.0 °F 45% 29.92 in 10.0 mi West 4.6 mph - N/A   Scattered Clouds
4:55 PM 57.9 °F - 37.8 °F 47% 29.93 in 10.0 mi West 4.6 mph - N/A   Scattered Clouds
5:15 PM 57.6 °F - 37.9 °F 48% 29.93 in 10.0 mi WSW 4.6 mph - N/A   Scattered Clouds
5:35 PM 56.8 °F - 36.9 °F 47% 29.93 in 10.0 mi Calm Calm - N/A   Clear
5:55 PM 55.8 °F - 37.4 °F 50% 29.94 in 10.0 mi Calm Calm - N/A   Clear
6:15 PM 54.7 °F - 38.5 °F 54% 29.94 in 10.0 mi Calm Calm - N/A   Clear
6:35 PM 53.1 °F - 39.2 °F 59% 29.95 in 10.0 mi Calm Calm - N/A   Clear
6:55 PM 46.8 °F - 40.3 °F 78% 29.96 in 10.0 mi Calm Calm - N/A   Clear
7:15 PM 45.5 °F - 40.8 °F 84% 29.96 in 10.0 mi Calm Calm - N/A   Clear
7:35 PM 44.8 °F - 40.8 °F 86% 29.97 in 10.0 mi Calm Calm - N/A   Clear
7:55 PM 44.6 °F - 41.5 °F 89% 29.98 in 10.0 mi Calm Calm - N/A   Clear
8:15 PM 43.7 °F - 41.9 °F 93% 29.99 in 10.0 mi Calm Calm - N/A   Clear
8:35 PM 42.8 °F - 41.9 °F 97% 29.99 in 10.0 mi Calm Calm - N/A   Clear
8:55 PM 42.1 °F - 41.2 °F 97% 30.00 in 10.0 mi Calm Calm - N/A   Clear
9:15 PM 41.7 °F - 41.0 °F 97% 30.00 in 10.0 mi Calm Calm - N/A   Clear
9:35 PM 41.5 °F - 41.0 °F 98% 30.01 in 10.0 mi Calm Calm - N/A   Clear
9:55 PM 40.5 °F - 39.6 °F 97% 30.01 in 10.0 mi Calm Calm - N/A   Clear
10:15 PM 40.3 °F - 39.6 °F 97% 30.01 in 10.0 mi Calm Calm - N/A   Clear
10:35 PM 39.9 °F - 39.2 °F 97% 30.02 in 10.0 mi Calm Calm - N/A   Clear
10:55 PM 39.6 °F - 38.8 °F 97% 30.02 in 10.0 mi Calm Calm - N/A   Clear
11:15 PM 39.4 °F - 38.7 °F 97% 30.02 in 10.0 mi Calm Calm - N/A   Clear
11:35 PM 39.0 °F - 38.5 °F 98% 30.02 in 10.0 mi Calm Calm - N/A   Clear
11:55 PM 38.7 °F - 38.3 °F 99% 30.02 in 10.0 mi Calm Calm - N/A   Clear